Regional Weather Roundup
Issued by NWS

Home | Current Version | Previous Version | Graphics & Text | Print | Product List | Glossary On
Versions: 1 2 3 4 5 6 7 8 9 10 11 12 13 14 15 16 17 18 19 20 21 22 23 24 25 26 27 28
000
ASUS43 KDMX 010707
RWRIA

WEATHER ROUNDUP FOR IOWA
NATIONAL WEATHER SERVICE DES MOINES IA
200 AM CDT SAT NOV 01 2014

NOTE: "FAIR" INDICATES FEW OR NO CLOUDS BELOW 12,000 FEET WITH NO
SIGNIFICANT WEATHER AND/OR OBSTRUCTIONS TO VISIBILITY.

* - THESE STATIONS ARE NOT NWS STATIONS...THUS NOT UNDER NWS
QUALITY CONTROL.  THEY ALSO DO NOT REPORT WEATHER SUCH
AS PRECIPITATION OR FOG.

IAZ001>003-012>014-020>022-031>034-043>046-010800-
   NORTHWEST IOWA

CITY           SKY/WX    TMP DP  RH WIND       PRES   REMARKS
CARROLL *      CLEAR     19  16  86 CALM      30.47S
CHEROKEE *     PTCLDY    23  18  80 SE3       30.45F
DENISON *      CLEAR     25  19  80 CALM      30.44S
LE MARS *      CLEAR     27  19  74 SE9       30.43F WCI  17
ORANGE CITY *  CLEAR     27  18  69 SE5       30.42F WCI  21
SHELDON *      CLEAR     25  16  68 SE8       30.42F WCI  16
SIOUX CITY     PTCLDY    25  18  74 SE6       30.44F WCI  18
SPENCER        PTCLDY    21  15  78 SE5       30.44F WCI  15
STORM LAKE *   CLEAR     21  16  79 SE7       30.45F WCI  13
$$

IAZ055>058-069>071-079>083-090>094-010800-
   SOUTHWEST IOWA

CITY           SKY/WX    TMP DP  RH WIND       PRES   REMARKS
ATLANTIC *     CLEAR     21  19  93 CALM      30.46F
AUDUBON *      CLEAR     19  14  79 CALM      30.46S
CLARINDA *     CLEAR     23  21  93 CALM      30.49S
COUNCIL BLFS * CLEAR     28  19  69 SE6       30.44F WCI  22
CRESTON *      CLEAR     25  19  80 E6        30.46F WCI  18
HARLAN  *      CLEAR     27  21  80 CALM      30.50R
LAMONI         CLEAR     27  19  72 NE5       30.46F WCI  22
RED OAK *      CLEAR     25  21  86 CALM      30.48R
SHENANDOAH *   CLEAR     25  23  93 CALM      30.49R
$$

IAZ047>049-059>061-072>074-084-010800-
   CENTRAL IOWA

CITY           SKY/WX    TMP DP  RH WIND       PRES   REMARKS
AMES           CLEAR     22  18  85 CALM      30.48F
ANKENY *       CLEAR     25  19  80 CALM      30.48F
CHARITON *     CLEAR     28  19  69 N6        30.46F WCI  22
DES MOINES     PTCLDY    29  19  66 CALM      30.48F
GRINNELL*      CLEAR     21  18  86 CALM      30.47S
KNOXVILLE *    CLEAR     27  19  74 CALM      30.46S
MARSHALLTOWN   CLEAR     22  17  81 N6        30.48R WCI  14
PELLA *        CLEAR     25  19  80 N3        30.49S
PERRY *          N/A     21  19  93 CALM      30.48S
$$

IAZ004>006-015-016-023>025-035-036-010800-
   NORTH CENTRAL IOWA

CITY           SKY/WX    TMP DP  RH WIND       PRES   REMARKS
ALGONA *       CLEAR     27  18  69 SE7       30.47S WCI  19
CLARION *      CLEAR     23  18  80 E8        30.47S WCI  14
ESTHERVILLE    PTCLDY    18  12  77 SE7       30.45S WCI   9
FORT DODGE *   CLEAR     21  16  79 E5        30.47S WCI  15
MASON CITY     CLEAR     19  14  81 CALM      30.48F
FOREST CITY *  CLEAR     19  19 100 CALM      30.46F
IOWA FALLS *     N/A     23  18  80 CALM      30.48F
$$

IAZ007>011-017>019-026>030-037>042-050>054-066-010800-
   NORTHEAST IOWA

CITY           SKY/WX    TMP DP  RH WIND       PRES   REMARKS
CEDAR RAPIDS   CLEAR     25  19  78 NW7       30.47R WCI  17
CHARLES CITY * CLEAR     23  18  80 CALM      30.48F
CLINTON *      CLEAR     25  18  74 N6        30.47R WCI  18
DECORAH *      CLEAR     23  18  80 CALM      30.46S
DUBUQUE        CLEAR     27  18  69 NE6       30.45R WCI  20
MONTICELLO *   CLEAR     25  19  80 N5        30.47S WCI  19
OELWEIN *      CLEAR     25  18  74 NE6       30.47F WCI  18
WATERLOO       CLEAR     19  16  88 CALM      30.48S
$$

IAZ064-065-067-068-078-010800-
   EAST CENTRAL IOWA

CITY           SKY/WX    TMP DP  RH WIND       PRES   REMARKS
DAVENPORT      CLEAR     22  15  75 NW6       30.46R WCI  14
IOWA CITY      CLEAR     31  20  63 N6        30.49S WCI  25
MT. PLEASANT * CLEAR     27  19  74 N8        30.46S WCI  18
MUSCATINE *    CLEAR     27  19  74 NW5       30.48R WCI  21
QUAD CITIES    CLEAR     31  18  58 N5        30.45R WCI  26
$$

IAZ062-063-075>077-085>089-095>099-010800-
   SOUTHEAST IOWA

CITY           SKY/WX    TMP DP  RH WIND       PRES   REMARKS
BURLINGTON     CLEAR     28  21  75 N6        30.45S WCI  22
FAIRFIELD *    CLEAR     25  19  80 N7        30.47S WCI  17
FORT MADISON * CLEAR     27  21  80 NW3       30.46S
KEOKUK *       CLEAR     30  21  69 N3        30.45S
OSKALOOSA *      N/A     25  19  80 NE5       30.47S WCI  19
CENTERVILLE *  CLEAR     25  19  80 N3        30.48S
OTTUMWA        CLEAR     23  17  78 N3        30.47S
WASHINGTON *   CLEAR     25  21  86 NW7       30.47S WCI  17
$$

ABBREVIATIONS USED IN REMARKS
   TC - TEMPERATURES IN CELSIUS
  WCI - WIND CHILL INDEX
   HX - HEAT INDEX
  VSB - VISIBILITY
$$




USA.gov is the U.S. government's official web portal to all federal, state and local government web resources and services.